Change the Weather History Date:

Tuesday, August 20, 2013

  Actual Average Record
Temperature  
Mean Temperature 65 °F -  
Max Temperature 68 °F 71 °F - ()
Min Temperature 62 °F 51 °F - ()
Growing Degree Days 15 (Base 50)    
Moisture  
Dew Point 56 °F    
Average Humidity 75    
Maximum Humidity 94    
Minimum Humidity 47    
Precipitation  
Precipitation 0.00 in 0.06 in - ()
Sea Level Pressure  
Sea Level Pressure 30.19 in    
Wind  
Wind Speed 8 mph ()    
Max Wind Speed 14 mph    
Max Gust Speed -    
Visibility 6.8 miles    
Events Rain    
T = Trace of Precipitation, MM = Missing Value Source: Averaged Metar Reports

Daily Weather History Graph

Daily Weather History Graph

Search for Another Location

Airport or City:

Trip Planner

Search our weather history database for the weather conditions in past years. The results will help you decide how hot, cold, wet, or windy it might be!

Date:

Astronomy

Aug. 20, 2013 Rise Set
Actual Time 5:52 AM CEST 7:59 PM CEST
Civil Twilight 5:17 AM CEST 8:34 PM CEST
Nautical Twilight 4:34 AM CEST 9:16 PM CEST
Astronomical Twilight 3:46 AM CEST 10:05 PM CEST
Moon 7:15 PM CEST (8/20) 5:02 AM CEST (8/20)
Length of Visible Light 15h 16m
Length of Day
14h 07m
Waxing Gibbous, 99% of the Moon is Illuminated
Aug 20
Waxing Gibbous
Aug 21
Full
Aug 28
Last Quarter
Sep 5
New
Sep 12
First Quarter

Hourly Weather History & Observations

Time (CEST) Temp. Dew Point Humidity Pressure Visibility Wind Dir Wind Speed Gust Speed Precip Events Conditions
12:00 AM 62.6 °F 60.8 °F 94% 30.09 in 6.2 mi West 9.2 mph - N/A   Scattered Clouds
12:30 AM 62.6 °F 60.8 °F 94% 30.09 in 6.2 mi West 9.2 mph - N/A   Mostly Cloudy
1:00 AM 62.6 °F 60.8 °F 94% 30.09 in 6.2 mi WNW 6.9 mph - N/A   Scattered Clouds
1:30 AM 64.4 °F 60.8 °F 88% 30.09 in 6.2 mi WNW 6.9 mph - N/A   Scattered Clouds
2:00 AM 64 °F 61 °F 86% 30.09 in 12 mi WNW 4.5 mph - -   Partly Cloudy
2:00 AM 62.6 °F 60.8 °F 94% 30.09 in 6.2 mi WNW 4.6 mph - N/A   Scattered Clouds
2:30 AM 64.4 °F 60.8 °F 88% 30.09 in 6.2 mi NW 5.8 mph - N/A   Scattered Clouds
3:00 AM 62.6 °F 60.8 °F 94% 30.09 in 6.2 mi WNW 3.5 mph - N/A   Partly Cloudy
3:30 AM 62.6 °F 60.8 °F 94% 30.12 in 6.2 mi Variable 2.3 mph - N/A   Mostly Cloudy
4:00 AM 62.6 °F 59.0 °F 88% 30.09 in 6.2 mi WNW 4.6 mph - N/A   Scattered Clouds
4:30 AM 62.6 °F 59.0 °F 88% 30.09 in 6.2 mi WNW 8.1 mph - N/A   Partly Cloudy
5:00 AM 62.6 °F 59.0 °F 88% 30.09 in 6.2 mi WNW 9.2 mph - N/A   Partly Cloudy
5:30 AM 62.6 °F 59.0 °F 88% 30.09 in 6.2 mi NNW 3.5 mph - N/A   Partly Cloudy
6:00 AM 62.6 °F 59.0 °F 88% 30.12 in 6.2 mi NW 5.8 mph - N/A   Scattered Clouds
6:30 AM 62.6 °F 59.0 °F 88% 30.12 in 6.2 mi WNW 6.9 mph - N/A   Partly Cloudy
7:00 AM 62.6 °F 59.0 °F 88% 30.12 in 6.2 mi West 6.9 mph - N/A   Mostly Cloudy
7:30 AM 62.6 °F 57.2 °F 82% 30.15 in 6.2 mi WNW 8.1 mph - N/A   Mostly Cloudy
8:00 AM 63 °F 57 °F 76% 30.15 in 16 mi WNW 13.4 mph - -   Overcast
8:00 AM 62.6 °F 57.2 °F 82% 30.15 in 6.2 mi WNW 10.4 mph - N/A   Mostly Cloudy
8:30 AM 62.6 °F 57.2 °F 82% 30.15 in 6.2 mi WNW 12.7 mph - N/A   Scattered Clouds
9:00 AM 62.6 °F 57.2 °F 82% 30.18 in 6.2 mi NW 12.7 mph - N/A Rain Light Rain
9:30 AM 64.4 °F 57.2 °F 77% 30.18 in 6.2 mi NW 11.5 mph - N/A Rain Light Rain
10:00 AM 64.4 °F 57.2 °F 77% 30.18 in 6.2 mi NW 9.2 mph - N/A   Mostly Cloudy
10:30 AM 64.4 °F 57.2 °F 77% 30.18 in 6.2 mi NW 12.7 mph - N/A   Mostly Cloudy
11:00 AM 64.4 °F 57.2 °F 77% 30.18 in 6.2 mi WNW 10.4 mph - N/A   Mostly Cloudy
11:30 AM 66.2 °F 57.2 °F 73% 30.21 in 6.2 mi WNW 13.8 mph - N/A   Partly Cloudy
12:00 PM 68.0 °F 55.4 °F 64% 30.21 in 6.2 mi NW 12.7 mph - N/A   Mostly Cloudy
12:30 PM 66.2 °F 55.4 °F 68% 30.21 in 6.2 mi WNW 13.8 mph - N/A   Scattered Clouds
1:00 PM 66.2 °F 53.6 °F 64% 30.21 in 6.2 mi NW 12.7 mph - N/A   Scattered Clouds
1:30 PM 66.2 °F 53.6 °F 64% 30.24 in 6.2 mi WNW 12.7 mph - N/A   Partly Cloudy
2:00 PM 67 °F 52 °F 47% 30.23 in 22 mi WNW 11.2 mph - -   Partly Cloudy
2:00 PM 66.2 °F 53.6 °F 64% 30.24 in 6.2 mi NNW 11.5 mph - N/A   Scattered Clouds
2:30 PM 68.0 °F 53.6 °F 60% 30.24 in 6.2 mi WNW 12.7 mph - N/A   Scattered Clouds
3:00 PM 68.0 °F 53.6 °F 60% 30.24 in 6.2 mi North 10.4 mph - N/A   Scattered Clouds
3:30 PM 66.2 °F 53.6 °F 64% 30.24 in 6.2 mi NW 10.4 mph - N/A Rain Light Rain
4:00 PM 66.2 °F 53.6 °F 64% 30.24 in 6.2 mi NNW 8.1 mph - N/A Rain Light Rain
4:30 PM 68.0 °F 53.6 °F 60% 30.24 in 6.2 mi NNW 9.2 mph - N/A   Partly Cloudy
5:00 PM 68.0 °F 53.6 °F 60% 30.24 in 6.2 mi NW 9.2 mph - N/A   Scattered Clouds
5:30 PM 68.0 °F 53.6 °F 60% 30.24 in 6.2 mi NNW 8.1 mph - N/A   Partly Cloudy
6:00 PM 68.0 °F 53.6 °F 60% 30.24 in 6.2 mi NW 9.2 mph - N/A   Partly Cloudy
6:30 PM 66.2 °F 53.6 °F 64% 30.24 in 6.2 mi NNW 8.1 mph - N/A   Partly Cloudy
7:00 PM 66.2 °F 53.6 °F 64% 30.24 in 6.2 mi NW 8.1 mph - N/A   Partly Cloudy
7:30 PM 66.2 °F 53.6 °F 64% 30.24 in - NNW 6.9 mph - N/A   Clear
8:00 PM 65 °F 53 °F 57% 30.27 in 19 mi North 8.9 mph - -   Partly Cloudy
8:00 PM 64.4 °F 53.6 °F 68% 30.27 in 6.2 mi NNW 8.1 mph - N/A   Partly Cloudy
8:30 PM 64.4 °F 53.6 °F 68% 30.27 in 6.2 mi NNW 9.2 mph - N/A   Mostly Cloudy
9:00 PM 64.4 °F 53.6 °F 68% 30.30 in 6.2 mi NNW 9.2 mph - N/A   Mostly Cloudy
9:30 PM 64.4 °F 53.6 °F 68% 30.30 in 6.2 mi NNW 9.2 mph - N/A   Mostly Cloudy
10:00 PM 62.6 °F 53.6 °F 72% 30.30 in 6.2 mi NW 9.2 mph - N/A   Mostly Cloudy
10:30 PM 62.6 °F 53.6 °F 72% 30.30 in 6.2 mi NNW 8.1 mph - N/A   Mostly Cloudy
11:00 PM 62.6 °F 53.6 °F 72% 30.30 in 6.2 mi NNW 4.6 mph - N/A   Overcast
11:30 PM 62.6 °F 53.6 °F 72% 30.30 in 6.2 mi North 5.8 mph - N/A   Overcast